Gastonia, NC

3:45 AM EDT on September 18, 2019 (GMT -0400)
Gastonia Municipal

Weather History for KAKH - August, 2019

Change the Weather History Date:

Saturday, August 24, 2019

  Actual Average (KCLT) Record (KCLT)
Temperature  
Mean Temperature 68 °F -  
Max Temperature 73 °F 86 °F 97 °F (1968)
Min Temperature 64 °F 68 °F 55 °F (1888)
Cooling Degree Days 4    
Growing Degree Days 18 (Base 50)    
Moisture  
Dew Point 65 °F    
Average Humidity 84    
Maximum Humidity 91    
Minimum Humidity 75    
Precipitation  
Precipitation 0.05 in - - ()
Sea Level Pressure  
Sea Level Pressure 30.09 in    
Wind  
Wind Speed 5 mph ()    
Max Wind Speed 14 mph    
Max Gust Speed 20 mph    
Visibility 8.0 miles    
Events Rain    
Averages and records for this station are not official NWS values.
T = Trace of Precipitation, MM = Missing Value Source: Averaged Metar Reports

Daily Weather History Graph

Daily Weather History Graph

Search for Another Location

Airport or City:

Astronomy

Aug. 24, 2019 Rise Set
Actual Time 6:50 AM EDT 8:02 PM EDT
Civil Twilight 6:24 AM EDT 8:28 PM EDT
Nautical Twilight 5:53 AM EDT 9:00 PM EDT
Astronomical Twilight 5:20 AM EDT 9:32 PM EDT
Moon 12:47 AM EDT (8/24) 3:10 PM EDT (8/24)
Length of Visible Light 14h 04m
Length of Day
13h 11m
Last Quarter, 39% of the Moon is Illuminated
Aug 24
Last Quarter
Aug 30
New
Sep 5
First Quarter
Sep 14
Full
Sep 21
Last Quarter

Hourly Weather History & Observations

Time (EDT) Temp. Dew Point Humidity Pressure Visibility Wind Dir Wind Speed Gust Speed Precip Events Conditions
12:43 AM 73.0 °F 69.1 °F 87% 30.06 in 10.0 mi Calm Calm - N/A   Mostly Cloudy
12:54 AM 73.0 °F 69.1 °F 87% 30.04 in 10.0 mi Calm Calm - N/A   Mostly Cloudy
1:10 AM 72.0 °F 69.1 °F 91% 30.06 in 2.0 mi Calm Calm - N/A   Mostly Cloudy
1:18 AM 72.0 °F 69.1 °F 91% 30.06 in 9.0 mi South 3.5 mph - N/A   Mostly Cloudy
1:54 AM 73.0 °F 69.1 °F 87% 30.03 in 7.0 mi Calm Calm - N/A   Overcast
2:17 AM 73.0 °F 69.1 °F 87% 30.05 in 8.0 mi Calm Calm - N/A   Overcast
2:46 AM 73.0 °F 69.1 °F 87% 30.04 in 7.0 mi Calm Calm - N/A   Mostly Cloudy
2:54 AM 73.0 °F 69.1 °F 87% 30.01 in 8.0 mi Calm Calm - N/A   Mostly Cloudy
3:02 AM 73.0 °F 69.1 °F 87% 30.03 in 8.0 mi Calm Calm - N/A   Overcast
3:49 AM 73.4 °F 69.8 °F 88% 30.03 in 10.0 mi Calm Calm - N/A   Unknown
3:54 AM 73.0 °F 69.1 °F 87% 30.01 in 10.0 mi Calm Calm - N/A   Unknown
4:54 AM 73.9 °F 70.0 °F 87% 29.99 in 10.0 mi Calm Calm - N/A   Overcast
5:17 AM 73.9 °F 70.0 °F 87% 30.02 in 6.0 mi NNE 4.6 mph - N/A   Overcast
5:35 AM 73.9 °F 70.0 °F 87% 30.02 in 7.0 mi NNE 6.9 mph - N/A   Overcast
5:42 AM 73.9 °F 70.0 °F 87% 30.02 in 7.0 mi NNE 6.9 mph - N/A   Overcast
5:54 AM 73.9 °F 70.0 °F 87% 30.01 in 3.0 mi NNE 5.8 mph - N/A   Overcast
6:54 AM 73.9 °F 70.0 °F 87% 30.04 in 3.0 mi NE 6.9 mph - N/A   Overcast
7:33 AM 71.1 °F 66.9 °F 87% 30.09 in 9.0 mi NNE 13.8 mph - N/A   Overcast
7:54 AM 70.0 °F 66.0 °F 87% 30.09 in 6.0 mi NNE 13.8 mph 19.6 mph N/A   Overcast
8:54 AM 66.9 °F 63.0 °F 87% 30.11 in 5.0 mi NNE 13.8 mph - N/A   Overcast
9:14 AM 66.0 °F 62.1 °F 87% 30.13 in 4.0 mi NNE 11.5 mph 19.6 mph N/A   Overcast
9:54 AM 66.9 °F 63.0 °F 87% 30.12 in 6.0 mi NNE 9.2 mph - 0.00 in Rain Light Rain
10:54 AM 66.9 °F 62.1 °F 84% 30.14 in 10.0 mi NNE 6.9 mph - 0.00 in   Overcast
11:23 AM 66.9 °F 62.1 °F 84% 30.15 in 10.0 mi NNE 10.4 mph - N/A   Overcast
11:54 AM 68.0 °F 62.1 °F 81% 30.14 in 10.0 mi NNE 8.1 mph - N/A   Overcast
12:54 PM 68.0 °F 62.1 °F 81% 30.13 in 10.0 mi NNE 10.4 mph - 0.00 in   Overcast
1:40 PM 66.9 °F 62.1 °F 84% 30.15 in 2.0 mi NNE 11.5 mph - 0.03 in Rain Light Rain
1:54 PM 66.9 °F 63.0 °F 87% 30.13 in 3.0 mi NNE 10.4 mph - 0.05 in Rain Light Rain
2:44 PM 68.0 °F 63.0 °F 84% 30.14 in 9.0 mi NNE 11.5 mph - 0.00 in   Overcast
2:54 PM 66.9 °F 63.0 °F 87% 30.13 in 6.0 mi NNE 10.4 mph - 0.00 in   Overcast
3:54 PM 68.0 °F 62.1 °F 81% 30.12 in 10.0 mi NNE 12.7 mph 17.3 mph N/A   Overcast
4:23 PM 68.0 °F 62.1 °F 81% 30.12 in 10.0 mi NE 11.5 mph - N/A   Overcast
4:54 PM 69.1 °F 61.0 °F 75% 30.11 in 10.0 mi NNE 10.4 mph - N/A   Overcast
5:05 PM 69.1 °F 61.0 °F 75% 30.12 in 10.0 mi NE 11.5 mph - N/A   Overcast
5:54 PM 69.1 °F 61.0 °F 75% 30.10 in 10.0 mi NNE 12.7 mph - N/A   Overcast
6:54 PM 68.0 °F 60.1 °F 76% 30.12 in 10.0 mi NE 11.5 mph - 0.00 in Rain Light Rain
7:54 PM 68.0 °F 60.1 °F 76% 30.13 in 10.0 mi NE 6.9 mph - 0.00 in   Overcast
9:43 PM 66.9 °F 59.0 °F 76% 30.16 in 10.0 mi NE 11.5 mph - N/A   Overcast
9:54 PM 66.0 °F 59.0 °F 78% 30.16 in 10.0 mi NNE 11.5 mph - N/A   Overcast
10:54 PM 64.9 °F 57.9 °F 78% 30.18 in 10.0 mi NE 12.7 mph 19.6 mph N/A   Overcast
11:10 PM 64.9 °F 57.9 °F 78% 30.19 in 10.0 mi NE 11.5 mph - N/A   Overcast
11:54 PM 64.9 °F 57.9 °F 78% 30.19 in 10.0 mi NE 9.2 mph - N/A   Overcast